Date,TemperatureHighF,TemperatureAvgF,TemperatureLowF,DewpointHighF,DewpointAvgF,DewpointLowF,HumidityHigh,HumidityAvg,HumidityLow,PressureMaxIn,PressureMinIn,WindSpeedMaxMPH,WindSpeedAvgMPH,GustSpeedMaxMPH,PrecipitationSumIn
2012-7-1,95.4,86.4,78.5,50.5,46.1,41.2,37,26,16,29.84,29.71,15,6,0,0.00
2012-7-2,96.3,80.1,66.5,61.2,50.6,41.5,83,38,16,29.97,29.78,15,4,0,0.11
2012-7-3,86.0,71.7,62.6,64.5,59.2,55.1,93,67,37,30.02,29.87,11,3,0,0.27
2012-7-4,77.6,66.7,61.1,63.5,59.6,-99.9,94,80,55,30.06,29.98,9,2,0,0.58
2012-7-5,85.6,70.1,59.6,62.3,58.0,51.6,96,69,32,30.11,30.00,10,2,0,0.14
2012-7-6,89.5,78.5,66.4,59.1,52.2,43.2,74,44,22,30.08,29.94,9,2,0,0.00
2012-7-7,90.2,74.9,64.9,61.4,53.2,42.0,88,50,24,30.11,29.95,11,2,6,0.59
2012-7-8,96.8,78.1,64.7,61.9,55.8,44.5,89,52,18,30.10,29.97,12,2,17,0.00
2012-7-9,95.0,81.6,69.1,55.8,51.7,45.8,57,38,20,30.03,29.88,9,3,12,0.00
2012-7-10,92.8,81.2,71.1,59.2,54.8,49.1,60,41,23,29.98,29.84,8,3,14,0.00
2012-7-11,90.4,81.3,67.6,64.8,57.2,52.6,88,45,29,29.99,29.83,9,3,15,0.05
2012-7-12,88.0,78.1,66.4,61.3,57.7,52.5,76,51,34,29.99,29.83,12,3,17,0.03
2012-7-13,92.4,74.2,67.2,64.2,61.3,55.6,85,67,30,30.05,29.95,13,2,23,0.07
2012-7-14,91.1,75.6,65.1,63.5,60.2,55.7,86,61,32,30.08,29.96,8,2,11,0.00
2012-7-15,91.8,73.0,62.7,63.8,58.3,51.7,91,63,27,30.11,29.90,10,2,16,0.61
2012-7-16,82.8,67.5,60.8,62.3,59.6,55.4,94,78,46,30.08,29.97,13,2,23,0.49
2012-7-17,84.6,73.8,60.5,60.8,57.4,51.6,89,58,39,30.09,29.97,9,2,23,0.00
2012-7-18,90.9,79.2,65.0,54.0,46.8,39.8,62,34,22,30.06,29.91,6,2,23,0.00
2012-7-19,90.7,75.7,65.4,62.1,56.5,47.4,79,53,31,30.08,29.95,7,2,23,0.00
2012-7-20,89.3,74.7,66.5,62.0,58.0,53.7,81,58,32,30.09,29.99,8,2,14,0.06
2012-7-21,87.4,73.4,63.9,63.7,59.2,52.0,86,64,36,30.10,29.99,8,2,16,0.13
2012-7-22,88.0,72.4,64.2,64.9,61.2,57.2,92,70,38,30.12,30.02,8,2,15,0.07
2012-7-23,92.0,76.1,63.8,63.1,59.6,53.0,87,60,28,30.11,29.98,7,2,11,0.00
2012-7-24,82.7,70.7,63.3,63.3,59.6,54.7,82,69,44,30.07,30.01,12,2,16,0.09
2012-7-25,87.0,75.7,63.6,62.0,57.9,51.3,84,57,35,30.11,29.96,9,3,15,0.00
2012-7-26,87.3,79.0,71.8,60.6,55.1,49.3,62,45,32,30.02,29.90,9,4,12,0.00
2012-7-27,91.8,76.5,67.5,63.0,56.1,50.2,83,51,30,30.05,29.87,10,2,15,0.20
2012-7-28,87.1,71.3,63.8,64.6,62.0,58.3,94,74,43,30.09,29.98,9,2,12,1.02
2012-7-29,83.6,69.8,61.4,65.9,61.5,57.8,93,76,50,30.12,30.04,9,2,13,0.02
2012-7-30,90.6,74.3,60.2,61.9,57.3,50.3,90,61,27,30.20,30.00,12,3,16,0.22
2012-7-31,88.7,71.7,59.8,65.6,60.0,56.9,91,69,37,30.15,30.03,7,2,16,0.02
2012-8-1,87.9,75.5,63.2,63.1,58.7,54.2,82,58,35,30.16,30.01,4,2,16,0.00
2012-8-2,89.9,78.2,63.9,58.7,54.3,50.5,71,46,27,30.08,29.93,5,2,16,0.00
2012-8-3,91.6,78.3,65.2,59.9,53.1,46.2,68,44,25,29.99,29.87,6,2,16,0.00
2012-8-4,92.0,76.0,64.7,62.1,55.3,49.8,77,51,25,30.06,29.91,10,2,17,0.16
2012-8-5,96.2,78.5,66.4,59.3,56.5,49.7,78,49,25,30.12,29.98,8,2,16,0.00
2012-8-6,96.5,79.0,64.6,62.7,57.6,49.8,79,52,22,30.13,29.97,9,2,16,0.17
2012-8-7,97.1,82.1,66.9,61.8,55.3,48.2,73,44,20,30.05,29.88,15,3,26,0.00
2012-8-8,98.0,81.2,69.2,61.5,56.8,50.2,70,46,22,30.06,29.87,10,2,16,0.00
2012-8-9,95.0,81.6,66.2,61.0,53.2,43.1,72,42,18,30.06,29.88,7,2,16,0.00
2012-8-10,98.1,82.8,67.0,54.5,49.6,46.3,56,33,19,29.98,29.81,7,2,16,0.00
2012-8-11,99.3,84.0,69.9,57.7,50.1,37.4,57,34,13,29.93,29.81,7,2,16,0.00
2012-8-12,100.8,84.3,69.1,53.9,46.0,35.2,49,29,11,29.93,29.82,7,2,16,0.00
2012-8-13,100.8,85.5,69.6,52.2,45.9,38.2,50,27,12,29.95,29.81,10,3,16,0.00
2012-8-14,96.8,79.7,69.0,61.5,51.2,43.2,70,40,18,29.93,29.78,12,2,19,0.00
2012-8-15,93.6,76.6,62.8,61.9,57.3,51.2,89,54,25,30.08,29.82,12,3,16,0.46
2012-8-16,78.6,69.7,61.9,65.4,61.4,57.3,90,76,54,30.10,29.97,5,1,16,0.15
2012-8-17,81.9,71.3,65.2,65.9,62.6,59.0,91,75,52,30.11,30.00,7,2,16,0.00
2012-8-18,86.7,73.9,63.7,64.5,61.2,58.7,87,67,41,30.08,29.91,6,2,16,0.00
2012-8-19,92.9,76.9,61.8,63.6,60.4,55.8,91,61,31,30.01,29.85,7,2,16,0.02
2012-8-20,93.5,78.9,65.5,63.7,58.8,46.0,82,54,21,30.00,29.88,7,2,16,0.00
2012-8-21,88.5,75.8,66.9,63.7,61.0,56.9,79,62,38,29.98,29.88,8,1,16,0.00
2012-8-22,82.2,71.5,64.1,65.6,62.9,60.8,91,75,49,30.05,29.95,7,1,16,0.43
2012-8-23,86.1,74.9,66.0,66.9,62.7,58.1,91,69,40,30.03,29.91,8,2,16,0.00
2012-8-24,88.5,74.7,62.9,62.8,59.1,51.3,85,61,29,30.01,29.88,8,2,16,0.00
2012-8-25,88.1,75.4,62.5,57.4,54.2,50.6,70,50,29,29.96,29.85,7,3,16,0.00
2012-8-26,90.6,77.2,63.8,58.4,55.3,52.3,71,48,29,30.03,29.90,9,2,14,0.00
2012-8-27,91.3,74.8,65.1,67.4,59.6,56.0,83,61,33,30.05,29.94,9,2,14,0.14
2012-8-28,90.3,76.5,62.0,61.0,51.2,33.7,86,48,15,30.12,29.98,6,2,13,0.00
2012-8-29,92.9,76.7,60.8,52.1,44.5,40.3,63,34,17,30.05,29.87,6,2,13,0.00
2012-8-30,90.8,75.7,60.8,58.9,51.2,39.5,72,46,18,29.97,29.85,11,2,18,0.00
2012-8-31,93.9,77.5,62.8,58.9,53.9,42.9,78,48,19,30.01,29.91,6,2,9,0.00
2012-9-1,96.6,81.2,67.2,59.0,49.7,33.2,67,39,12,30.01,29.89,6,2,10,0.00
2012-9-2,96.5,80.8,67.7,59.3,53.1,40.7,63,41,15,29.99,29.86,7,2,11,0.00
2012-9-3,87.8,73.3,64.1,62.3,56.8,52.5,89,58,36,30.18,29.96,11,2,17,0.05
2012-9-4,82.6,72.2,63.5,64.0,61.3,57.4,91,70,48,30.19,30.00,9,3,14,0.40
2012-9-5,85.7,74.2,65.5,65.0,62.2,59.6,93,68,42,30.09,29.92,6,2,11,0.07
2012-9-6,89.7,74.0,65.2,64.9,61.6,56.7,88,67,36,30.06,29.92,9,2,12,0.00
2012-9-7,81.7,69.3,62.5,65.8,62.4,58.9,90,79,54,30.08,30.00,10,2,18,0.60
2012-9-8,80.7,69.8,64.6,63.9,59.4,54.2,91,71,49,30.14,30.04,8,3,13,0.00
2012-9-9,70.5,65.3,63.9,54.6,51.8,50.6,68,62,54,30.16,30.08,6,3,10,0.00
2012-9-28,66.6,61.3,53.0,54.1,50.4,47.3,81,68,53,30.14,30.03,5,2,9,0.10
2012-9-29,82.3,65.6,51.5,54.6,47.2,38.3,89,57,22,30.24,30.09,5,2,11,0.00
2012-9-30,85.7,72.1,58.2,46.7,37.8,24.8,57,33,12,30.14,30.00,7,2,11,0.00
2012-10-1,89.6,72.6,58.2,36.7,32.2,26.1,40,25,11,30.09,29.98,4,2,11,0.00
2012-10-2,88.6,72.9,56.3,42.7,33.3,26.5,45,27,11,30.08,29.96,8,2,12,0.00
2012-10-3,86.9,75.6,63.0,36.0,30.5,22.5,32,20,11,30.11,30.02,7,3,13,0.00
2012-10-4,85.3,73.9,58.8,37.1,33.8,30.5,38,24,15,30.18,30.08,7,3,12,0.00
2012-10-5,84.5,70.1,51.8,39.7,33.4,27.4,53,29,13,30.17,30.03,8,3,14,0.00
2012-10-6,81.6,69.2,55.3,37.9,31.9,25.0,43,27,13,30.07,29.95,8,2,12,0.00
2012-10-7,86.7,69.2,53.6,40.5,34.7,28.2,52,30,17,30.06,29.95,6,2,10,0.00
2012-10-8,83.2,69.0,52.4,38.9,30.6,22.0,45,26,11,30.11,29.99,7,2,13,0.00
2012-10-9,84.1,69.5,51.1,35.3,30.7,24.9,42,25,12,30.11,29.97,9,2,13,0.00
2012-10-10,83.0,66.7,50.4,41.7,35.8,23.0,56,35,12,30.13,29.97,8,3,15,0.00
2012-10-11,82.8,69.0,53.5,51.0,42.5,34.4,58,40,21,30.04,29.94,12,5,23,0.00
2012-10-12,73.6,65.1,54.3,51.2,34.2,4.7,56,36,7,30.12,29.96,13,6,23,0.00
2012-10-13,72.3,56.6,40.2,36.6,32.3,25.1,76,44,19,30.28,30.12,6,2,11,0.00
2012-10-14,81.3,63.0,45.8,34.5,28.0,18.8,51,31,10,30.31,30.14,5,2,9,0.00
2012-10-15,83.8,66.7,49.8,32.1,23.7,12.7,39,22,7,30.19,30.00,7,2,13,0.00
2012-10-16,82.1,65.9,50.1,30.7,24.7,18.1,37,22,11,30.07,29.92,4,1,8,0.00
2012-10-17,84.9,69.1,53.1,54.4,35.3,26.4,62,32,15,30.06,29.95,6,2,9,0.00
2012-10-18,78.8,67.5,54.5,55.5,49.9,42.2,87,56,29,30.13,30.01,6,2,10,0.00
2012-10-19,86.1,68.6,51.8,46.7,41.8,35.1,72,41,19,30.12,29.94,4,1,8,0.00
2012-10-20,80.9,68.4,54.8,44.3,40.0,35.1,60,37,20,29.99,29.87,8,2,12,0.00
2012-10-21,78.1,64.3,52.7,44.2,38.2,30.5,66,41,20,30.02,29.92,7,2,12,0.00
2012-10-22,79.9,62.3,45.8,43.3,36.2,27.7,72,42,15,30.10,29.99,5,1,11,0.00
2012-10-23,81.9,64.5,48.4,39.4,33.5,26.0,57,35,13,30.07,29.95,6,2,10,0.00
2012-10-24,79.3,64.0,46.8,38.3,33.2,25.3,59,35,14,30.05,29.95,9,3,13,0.00
2012-10-25,76.5,58.2,42.3,32.3,21.2,1.6,56,29,7,30.15,30.05,6,2,9,0.00
2012-10-26,79.2,60.9,44.0,28.7,17.5,9.8,31,20,8,30.22,30.06,8,2,13,0.00
2012-10-27,78.0,59.6,39.3,32.0,29.0,25.1,58,33,18,30.15,30.03,5,2,8,0.00
2012-10-28,82.0,62.3,45.4,33.5,29.4,27.2,53,32,14,30.22,30.10,4,2,8,0.00
2012-10-29,83.3,65.1,52.6,33.7,29.3,23.8,44,28,12,30.27,30.13,4,2,7,0.00
2012-10-30,81.8,63.9,50.5,33.2,26.9,12.7,46,27,9,30.23,30.09,5,2,8,0.00
2012-10-31,81.3,64.5,49.7,32.1,24.1,17.7,41,24,10,30.19,30.06,5,2,9,0.00
2012-11-1,80.7,64.9,50.3,28.7,23.9,16.1,33,23,10,30.16,30.01,6,2,13,0.00
2012-11-2,76.3,61.5,47.3,38.7,32.3,26.8,51,35,17,30.11,30.00,7,2,11,0.00
2012-11-3,74.1,58.8,47.3,44.9,37.4,29.8,70,47,20,30.22,30.11,4,2,10,0.00
2012-11-4,78.2,60.8,47.2,34.2,29.3,23.3,54,33,15,30.29,30.19,4,2,6,0.00
2012-11-5,81.6,62.6,45.8,30.6,24.4,17.7,45,26,12,30.31,30.18,3,2,10,0.00
2012-11-6,82.4,64.8,50.3,26.2,21.3,18.0,32,20,10,30.29,30.15,3,2,7,0.00
2012-11-7,82.8,67.2,52.1,30.5,25.9,21.1,31,22,13,30.23,30.05,7,2,9,0.00
2012-11-8,76.6,63.3,55.6,46.3,33.0,18.8,71,34,15,30.10,29.98,12,3,20,0.00
2012-11-9,69.5,60.0,52.2,49.7,44.7,38.6,88,59,35,30.08,29.86,19,7,29,0.08
2012-11-10,57.5,50.4,40.7,42.1,31.6,19.2,77,49,30,30.19,29.87,17,8,31,0.01
2012-11-11,52.2,39.5,27.9,25.6,14.6,1.6,74,41,14,30.56,30.19,5,2,15,0.00
2012-11-12,60.5,44.5,26.9,16.3,10.6,7.2,52,28,12,30.61,30.41,5,2,15,0.00
2012-11-13,70.5,48.4,32.5,15.4,9.7,-1.5,42,24,6,30.43,30.29,4,1,15,0.00
2012-11-14,73.9,55.1,36.5,19.8,10.2,3.9,33,19,7,30.39,30.23,5,1,15,0.00
2012-11-15,75.5,58.4,41.7,27.4,22.2,16.9,47,27,12,30.33,30.22,0,0,15,0.00
2012-11-16,71.1,58.8,49.3,36.3,30.1,23.8,58,35,22,30.27,30.17,4,0,15,0.00
2012-11-17,69.4,56.9,49.1,46.1,36.8,30.3,59,48,32,30.31,30.18,3,1,15,0.00
2012-11-19,49.3,48.2,47.0,38.0,37.5,36.9,70,66,63,30.37,30.35,3,2,4,0.00
2012-11-20,72.4,56.0,40.5,40.4,36.8,33.2,81,52,24,30.37,30.22,4,1,8,0.00
2012-11-21,76.4,60.0,48.0,40.4,36.2,29.7,68,44,22,30.24,30.11,7,1,10,0.00
2012-11-22,76.6,58.0,45.8,36.3,31.9,25.1,58,40,17,30.31,30.17,4,1,6,0.00
2012-11-23,76.0,60.3,46.3,33.4,29.4,25.1,50,33,19,30.39,30.27,7,3,12,0.00
2012-11-24,74.0,57.9,41.2,34.4,30.7,26.0,65,38,22,30.34,30.15,7,1,11,0.00
2012-11-28,59.0,52.9,45.9,34.1,33.1,31.6,58,47,39,30.34,30.32,3,0,4,0.00
2012-11-29,73.5,54.0,41.3,36.0,30.8,23.2,69,44,18,30.37,30.24,5,2,9,0.00
2012-11-30,73.9,54.7,41.2,34.6,30.1,25.6,64,42,17,30.34,30.20,5,2,8,0.00
2012-12-1,72.2,53.7,39.7,36.5,27.7,18.4,65,40,18,30.31,30.20,4,2,5,0.00
2012-12-2,72.3,56.1,40.2,26.0,20.7,15.5,48,28,12,30.29,30.19,8,2,13,0.00
2012-12-3,72.5,53.8,39.4,33.7,25.7,18.3,61,36,16,30.35,30.20,7,2,15,0.00
2012-12-4,70.8,53.6,41.7,37.2,33.2,29.6,71,49,25,30.45,30.32,3,2,7,0.00
2012-12-5,78.1,56.4,42.5,31.9,24.7,14.8,54,33,11,30.38,30.17,4,2,8,0.00
2012-12-6,75.1,56.9,39.6,28.6,21.4,5.5,46,28,8,30.18,29.99,8,3,12,0.00
2012-12-7,69.6,54.6,41.6,33.5,29.5,25.3,60,40,23,30.11,29.99,7,2,9,0.00
2012-12-8,66.2,50.8,36.5,34.6,28.9,24.5,75,47,22,30.16,30.05,7,2,14,0.00
2012-12-9,63.0,49.8,37.4,33.1,23.0,13.6,69,39,16,30.27,30.11,9,3,16,0.00
2012-12-10,59.8,41.8,28.6,18.3,15.7,13.2,59,37,16,30.31,30.18,4,1,7,0.00
2012-12-11,60.9,42.3,30.3,15.1,9.8,3.8,49,29,11,30.35,30.24,4,2,6,0.00
2012-12-12,65.8,46.9,30.8,24.9,15.2,6.0,46,29,16,30.33,30.20,4,1,8,0.00
2012-12-13,62.4,53.0,45.5,46.1,33.6,17.0,92,51,25,30.22,29.84,11,5,19,0.41
2012-12-14,51.1,41.1,34.4,46.1,31.7,26.2,91,70,53,30.27,29.81,18,5,30,0.47
2012-12-15,52.8,43.7,33.3,36.0,32.9,28.1,81,66,48,30.30,30.17,9,3,18,0.00
2012-12-16,52.2,42.3,30.4,37.7,31.7,26.7,87,67,44,30.40,30.19,8,3,14,0.00
2012-12-17,59.3,40.0,28.0,33.4,29.5,24.7,89,69,32,30.45,30.26,3,1,4,0.00
2012-12-18,65.4,48.6,32.4,33.7,29.4,25.5,85,52,23,30.27,29.97,10,3,18,0.00
2012-12-19,50.5,37.9,25.9,39.1,24.0,10.1,89,60,27,30.54,29.90,15,7,28,0.08
2012-12-20,55.1,38.0,20.4,23.7,14.4,3.3,84,46,18,30.68,30.51,7,2,11,0.00
2012-12-21,60.5,43.8,26.5,23.5,14.0,5.2,64,33,14,30.52,30.33,6,2,13,0.00
2012-12-22,64.0,48.3,37.3,29.6,24.4,13.5,65,41,22,30.39,30.27,4,1,8,0.00
2012-12-23,65.1,46.9,35.9,35.9,29.0,22.9,79,53,26,30.37,30.23,3,1,5,0.00
2012-12-24,60.9,46.2,35.2,33.0,28.6,24.2,73,53,26,30.27,30.05,11,3,15,0.00
2012-12-25,56.1,44.7,36.9,32.0,24.5,11.7,65,47,19,30.26,30.16,12,3,18,0.00
2012-12-26,62.1,45.5,32.5,25.9,13.5,-7.2,66,35,6,30.22,30.04,8,2,13,0.00
2012-12-27,48.7,36.8,25.1,29.6,20.7,9.7,88,55,31,30.29,30.01,11,3,20,0.00
2012-12-28,49.7,33.6,21.7,25.4,17.3,12.4,85,55,23,30.44,30.29,3,1,6,0.00
2012-12-29,58.2,42.4,24.2,20.0,17.2,12.7,69,38,21,30.44,30.20,6,3,13,0.00
2012-12-30,55.4,43.4,32.8,31.3,20.9,12.9,88,45,22,30.21,29.96,13,4,18,0.03
2012-12-31,41.9,34.3,27.8,33.4,28.4,23.0,94,80,55,30.45,30.13,8,2,14,0.13
2013-1-1,46.5,35.5,26.8,25.0,22.0,18.0,77,60,34,30.45,30.41,2,1,5,0.00